{"data":{"norad_id":65654,"epoch":"2026-09-20T20:28:08.852736Z","epoch_age_seconds":78302,"freshness":"FRESH","line1":"1 65654U 25211C   26263.85288024  .00009306  00000+0  29023-3 0  9999","line2":"2 65654  97.2827 304.0200 0000840  86.9183 273.2156 15.33445108 56572","mean_motion":15.33445108,"eccentricity":8.4e-5,"inclination_deg":97.2827,"raan_deg":304.02,"arg_perigee_deg":86.9183,"mean_anomaly_deg":273.2156,"bstar":0.00029023,"rev_number":5657,"period_min":93.906198043054,"perigee_km":464.96798403847,"apogee_km":466.1177222538,"semimajor_km":6843.6798531461,"source":"CELESTRAK","updated_at":"2026-09-21T09:00:35.679215Z"}}